DELTA 1 DEB, 7030

Orbit data source: Space-Track

DELTA 1 DEB, 7030 is space debris in SSO originally from a launch on Tue, 06 Nov 1973 UTC launched from the Air Force Western Test Range (AFWTR). Debris objects in space refer to the collection of defunct objects orbiting the Earth. Examples of debris include non-operational satellites, rocket bodies, and fragments generated from explosions, collisions, or faulty payload assembly.

Loading next visibility...
Identifier
7030, 1973-086W
Orbit
SSO
Country
Flag of USUS
Related business
Manufacturer
Unknown
Mission
Spacecraft
Bus & Motor
Unknown
Mass
Unknown
Launch date (UTC)
1973-11-06 (53 years ago)
Launch vehicle
Unknown
Launch site
Air Force Western Test Range (AFWTR)
Object type
Payload
Rocket body
Debris
Shape & HBR
Unknown shape, 0.1 m
Radar Cross Section
Medium (>0.1 m² and <1 m²)

Expand to show TLE details & history
Last TLE update: 1 day ago

TLE from 1 day ago
0 DELTA 1 DEB
1 07030U 73086W   26208.44552316  .00000008  00000-0  45310-3 0  9996
2 07030 101.9345 198.9044 0090887 108.4039  51.6011 12.24106231354577
Epoch: 2026-07-27T10:41Z
TLE epoch observation values (Epoch: 2026-07-27T10:41:33.201Z)
Latitude
18.74198°
Longitude
-82.52054°
Altitude
1,532.26 km
Speed
7.121 km/s
True Right ascension
01h 31m 59s
True Declination
18° 38' 52"
Sunlit
Object was in daylight at epoch
Visualization orbit readout
Latitude
Unknown
Longitude
Unknown
Altitude
Unknown
Speed
Unknown
Apparent Right ascension
Unknown
Apparent Declination
Unknown
Sunlit
N/A
Visualization observer readout
Local Sidereal Time
09:33:09
Azimuth
Unknown
Elevation
Unknown
Doppler factor
Unknown
Orbital elements
Apogee altitude
1,644.557 km
Perigee altitude
1,500.039 km
Semi-major axis
7,950.435 km
Eccentricity
0.00909
Inclination
101.9345°
RAAN
198.9044°
Arg. of periapsis
108.4039°
True anomaly
52.42309°
Mean anomaly
51.6011°
Eccentric anomaly
52.01152°
Mean motion
3.06166 °/min
Orbital period
117.58 mins
BSTAR
0.0004531
Loading maneuver chart data...
Computing Atmospheric mass density...
Loading historical data...
Loading historical data...
Loading historical data...
Loading historical data...
Loading historical data...
Loading historical data...
Loading historical data...

Documentation

Showing up to 5 results
|